Location: Ago
(8.4667°N, 4.4833°E)
Time: 23:56:42
(UTC+00:00)

H-10 deb - Pass Details

Date: 18 September 2020
Orbit: 373 x 32718 km, 7.2° (Epoch: 20 October)

Event Time Altitude Azimuth Distance (km) Brightness Sun altitude
Rises 19:07:47 0° 262° (W) 24,429 11.5 -22.5°
Reaches altitude 10° 20:05:07 10° 261° (W) 11,226 9.1 -36.5°
Enters shadow 20:29:37 56° 233° (SW) 1,874 4.4 -42.5°
